AAY2719 KPIE-KEYW

Flight info

Callsign AAY2719
Flight time 0h 41m
Altitude 31000
Route SABEE KRAKN1
Aircraft A319/M-SDE3FGHIRWY/LB1

Departure

Time 2026-05-08 21:15
Airport St. Petersburg Clearwater International Airport (KPIE)

Arrival

Time 2026-05-08 21:56
Airport Key West International Airport (KEYW)
Time Latitude Longitude Altitude Speed Heading
2026-05-08 20:46 27.90755 -82.69207 25 ft 0 kts 178°
2026-05-08 21:07 27.90760 -82.69208 44 ft 4 kts 179°
2026-05-08 21:07 27.90787 -82.69207 27 ft 4 kts 177°
2026-05-08 21:08 27.90809 -82.69213 25 ft 3 kts 146°
2026-05-08 21:08 27.90827 -82.69232 26 ft 4 kts 112°
2026-05-08 21:08 27.90832 -82.69261 25 ft 3 kts 88°
2026-05-08 21:08 27.90832 -82.69264 24 ft 0 kts 88°
2026-05-08 21:10 27.90833 -82.69221 24 ft 10 kts 88°
2026-05-08 21:10 27.90836 -82.69133 24 ft 13 kts 88°
2026-05-08 21:11 27.90839 -82.69023 24 ft 15 kts 88°
2026-05-08 21:11 27.90892 -82.68976 24 ft 13 kts 353°
2026-05-08 21:11 27.91004 -82.68996 24 ft 19 kts 351°
2026-05-08 21:11 27.91145 -82.69020 24 ft 22 kts 351°
2026-05-08 21:12 27.91310 -82.69047 26 ft 26 kts 352°
2026-05-08 21:12 27.91496 -82.69081 24 ft 28 kts 351°
2026-05-08 21:12 27.91692 -82.69116 24 ft 29 kts 351°
2026-05-08 21:12 27.91897 -82.69152 24 ft 30 kts 351°
2026-05-08 21:13 27.92108 -82.69189 24 ft 31 kts 351°
2026-05-08 21:13 27.92267 -82.69211 24 ft 17 kts
2026-05-08 21:13 27.92328 -82.69106 23 ft 11 kts 84°
2026-05-08 21:13 27.92297 -82.69061 22 ft 7 kts 174°
2026-05-08 21:14 27.92286 -82.69060 23 ft 5 kts 173°
2026-05-08 21:14 27.91996 -82.69011 22 ft 81 kts 170°
2026-05-08 21:14 27.91224 -82.68876 25 ft 141 kts 171°
2026-05-08 21:14 27.90198 -82.68694 449 ft 146 kts 177°
2026-05-08 21:15 27.89220 -82.68486 1013 ft 147 kts 159°
2026-05-08 21:15 27.88313 -82.67932 1590 ft 149 kts 155°
2026-05-08 21:15 27.87370 -82.67337 2048 ft 165 kts 154°
2026-05-08 21:15 27.86303 -82.66668 2345 ft 186 kts 152°
2026-05-08 21:16 27.85103 -82.65917 2677 ft 207 kts 151°
2026-05-08 21:16 27.83779 -82.65091 3002 ft 230 kts 151°
2026-05-08 21:16 27.82300 -82.64169 3381 ft 255 kts 150°
2026-05-08 21:16 27.80697 -82.63172 4069 ft 268 kts 151°
2026-05-08 21:17 27.79051 -82.62151 4980 ft 272 kts 151°
2026-05-08 21:17 27.77378 -82.61116 5885 ft 276 kts 152°
2026-05-08 21:17 27.75676 -82.60068 6753 ft 281 kts 152°
2026-05-08 21:17 27.73978 -82.59022 7627 ft 283 kts 153°
2026-05-08 21:18 27.72231 -82.57942 8562 ft 283 kts 154°
2026-05-08 21:18 27.70494 -82.56871 9432 ft 286 kts 154°
2026-05-08 21:18 27.68760 -82.55804 10196 ft 292 kts 154°
2026-05-08 21:18 27.66902 -82.54668 10465 ft 315 kts 154°
2026-05-08 21:19 27.64910 -82.53454 10823 ft 332 kts 154°
2026-05-08 21:19 27.62854 -82.52197 11462 ft 339 kts 154°
2026-05-08 21:19 27.60768 -82.50918 12125 ft 344 kts 154°
2026-05-08 21:19 27.58649 -82.49616 12825 ft 349 kts 154°
2026-05-08 21:20 27.56501 -82.48295 13496 ft 354 kts 154°
2026-05-08 21:20 27.54324 -82.46959 14099 ft 359 kts 154°
2026-05-08 21:20 27.52119 -82.45607 14687 ft 363 kts 155°
2026-05-08 21:20 27.49894 -82.44240 15282 ft 367 kts 155°
2026-05-08 21:21 27.47640 -82.42860 15885 ft 370 kts 155°
2026-05-08 21:21 27.45362 -82.41467 16478 ft 374 kts 156°
2026-05-08 21:21 27.43067 -82.40066 17061 ft 378 kts 156°
2026-05-08 21:21 27.40743 -82.38644 17634 ft 382 kts 156°
2026-05-08 21:22 27.38395 -82.37207 18214 ft 386 kts 156°
2026-05-08 21:22 27.36028 -82.35758 18712 ft 390 kts 156°
2026-05-08 21:22 27.33629 -82.34293 19218 ft 393 kts 157°
2026-05-08 21:22 27.31212 -82.32817 19718 ft 397 kts 157°
2026-05-08 21:23 27.28772 -82.31330 20217 ft 401 kts 157°
2026-05-08 21:23 27.26303 -82.29829 20718 ft 405 kts 157°
2026-05-08 21:23 27.23814 -82.28315 21202 ft 409 kts 157°
2026-05-08 21:23 27.21299 -82.26782 21695 ft 413 kts 157°
2026-05-08 21:24 27.18761 -82.25232 22187 ft 417 kts 157°
2026-05-08 21:24 27.16198 -82.23667 22682 ft 421 kts 157°
2026-05-08 21:24 27.13612 -82.22093 23153 ft 425 kts 158°
2026-05-08 21:24 27.10998 -82.20506 23612 ft 429 kts 158°
2026-05-08 21:25 27.08310 -82.19075 23990 ft 426 kts 166°
2026-05-08 21:25 27.05493 -82.18095 24388 ft 424 kts 171°
2026-05-08 21:25 27.02642 -82.17192 24785 ft 427 kts 171°
2026-05-08 21:25 26.99777 -82.16286 25175 ft 429 kts 171°
2026-05-08 21:26 26.96889 -82.15373 25565 ft 432 kts 171°
2026-05-08 21:26 26.93986 -82.14455 25923 ft 435 kts 171°
2026-05-08 21:26 26.91070 -82.13535 26284 ft 437 kts 171°
2026-05-08 21:26 26.88169 -82.12618 26642 ft 440 kts 171°
2026-05-08 21:27 26.85214 -82.11681 27005 ft 442 kts 171°
2026-05-08 21:27 26.82242 -82.10739 27381 ft 445 kts 171°
2026-05-08 21:27 26.79253 -82.09791 27738 ft 447 kts 171°
2026-05-08 21:27 26.76252 -82.08838 28108 ft 450 kts 171°
2026-05-08 21:28 26.73235 -82.07877 28484 ft 452 kts 171°
2026-05-08 21:28 26.70204 -82.06912 28827 ft 454 kts 171°
2026-05-08 21:28 26.67162 -82.05946 28959 ft 453 kts 171°
2026-05-08 21:28 26.64187 -82.04993 28960 ft 438 kts 171°
2026-05-08 21:29 26.61277 -82.04064 28978 ft 434 kts 171°
2026-05-08 21:29 26.55479 -82.02242 28976 ft 431 kts 171°
2026-05-08 21:30 26.49697 -82.00437 28975 ft 431 kts 171°
2026-05-08 21:30 26.43924 -81.98627 28981 ft 431 kts 171°
2026-05-08 21:31 26.38151 -81.96805 28985 ft 431 kts 171°
2026-05-08 21:31 26.32381 -81.94983 28970 ft 431 kts 171°
2026-05-08 21:32 26.26650 -81.93189 28967 ft 431 kts 171°
2026-05-08 21:32 26.20882 -81.91386 28965 ft 430 kts 171°
2026-05-08 21:33 26.15112 -81.89583 28963 ft 430 kts 171°
2026-05-08 21:33 26.09348 -81.87781 28962 ft 430 kts 171°
2026-05-08 21:34 26.03577 -81.85973 28967 ft 433 kts 171°
2026-05-08 21:34 26.00639 -81.85057 28997 ft 444 kts 171°
2026-05-08 21:34 25.97630 -81.84126 28996 ft 453 kts 171°
2026-05-08 21:35 25.91515 -81.82229 28996 ft 457 kts 170°
2026-05-08 21:35 25.85390 -81.80308 28994 ft 458 kts 170°
2026-05-08 21:35 25.82338 -81.79349 28691 ft 453 kts 170°
2026-05-08 21:36 25.79306 -81.78398 27582 ft 452 kts 170°
2026-05-08 21:36 25.76295 -81.77458 26720 ft 446 kts 170°
2026-05-08 21:36 25.73327 -81.76535 25897 ft 440 kts 170°
2026-05-08 21:36 25.70397 -81.75624 25045 ft 433 kts 169°
2026-05-08 21:37 25.67514 -81.74733 24198 ft 427 kts 169°
2026-05-08 21:37 25.64671 -81.73852 23355 ft 422 kts 169°
2026-05-08 21:37 25.61860 -81.72981 22453 ft 416 kts 169°
2026-05-08 21:37 25.59094 -81.72123 21623 ft 410 kts 168°
2026-05-08 21:38 25.56368 -81.71279 20850 ft 404 kts 168°
2026-05-08 21:38 25.53675 -81.70445 20089 ft 398 kts 168°
2026-05-08 21:38 25.51026 -81.69625 19338 ft 393 kts 167°
2026-05-08 21:38 25.48412 -81.68815 18630 ft 387 kts 167°
2026-05-08 21:39 25.45855 -81.68023 18081 ft 376 kts 167°
2026-05-08 21:39 25.43415 -81.67268 17595 ft 363 kts 167°
2026-05-08 21:39 25.41027 -81.66532 17149 ft 350 kts 167°
2026-05-08 21:39 25.38721 -81.65821 16717 ft 339 kts 166°
2026-05-08 21:40 25.36485 -81.65129 16293 ft 329 kts 166°
2026-05-08 21:40 25.34306 -81.64455 15883 ft 324 kts 166°
2026-05-08 21:40 25.32140 -81.63787 15481 ft 322 kts 166°
2026-05-08 21:41 25.27812 -81.62712 14709 ft 316 kts 179°
2026-05-08 21:41 25.25637 -81.62804 14313 ft 312 kts 190°
2026-05-08 21:41 25.23544 -81.63369 13924 ft 309 kts 201°
2026-05-08 21:41 25.21566 -81.64270 13511 ft 307 kts 204°
2026-05-08 21:42 25.19605 -81.65179 13110 ft 305 kts 203°
2026-05-08 21:42 25.17652 -81.66077 12720 ft 302 kts 203°
2026-05-08 21:42 25.15718 -81.66962 12332 ft 300 kts 203°
2026-05-08 21:42 25.13795 -81.67844 11940 ft 298 kts 202°
2026-05-08 21:43 25.11887 -81.68718 11550 ft 296 kts 202°
2026-05-08 21:43 25.09991 -81.69587 11158 ft 294 kts 202°
2026-05-08 21:43 25.08106 -81.70452 10775 ft 293 kts 202°
2026-05-08 21:43 25.06220 -81.71321 10377 ft 293 kts 202°
2026-05-08 21:44 25.04350 -81.72185 10210 ft 289 kts 202°
2026-05-08 21:44 25.02499 -81.73037 10103 ft 288 kts 202°
2026-05-08 21:44 25.00651 -81.73887 9978 ft 288 kts 202°
2026-05-08 21:44 24.98805 -81.74737 9642 ft 287 kts 202°
2026-05-08 21:45 24.96968 -81.75583 9325 ft 285 kts 202°
2026-05-08 21:45 24.95143 -81.76423 9018 ft 284 kts 202°
2026-05-08 21:45 24.93321 -81.77260 8724 ft 283 kts 202°
2026-05-08 21:45 24.91507 -81.78092 8441 ft 282 kts 202°
2026-05-08 21:46 24.89694 -81.78922 8147 ft 282 kts 202°
2026-05-08 21:46 24.87909 -81.79805 7857 ft 281 kts 209°
2026-05-08 21:46 24.86256 -81.80963 7568 ft 281 kts 212°
2026-05-08 21:46 24.84620 -81.82128 7285 ft 280 kts 212°
2026-05-08 21:47 24.82989 -81.83286 7005 ft 279 kts 212°
2026-05-08 21:47 24.81357 -81.84442 6728 ft 278 kts 212°
2026-05-08 21:47 24.79737 -81.85588 6448 ft 276 kts 212°
2026-05-08 21:47 24.78122 -81.86730 6154 ft 276 kts 211°
2026-05-08 21:48 24.76533 -81.87851 5859 ft 275 kts 212°
2026-05-08 21:48 24.75449 -81.88616 5661 ft 273 kts 212°
2026-05-08 21:48 24.73342 -81.90107 5278 ft 272 kts 212°
2026-05-08 21:48 24.71748 -81.91234 4994 ft 272 kts 212°
2026-05-08 21:49 24.70157 -81.92357 4705 ft 271 kts 212°
2026-05-08 21:49 24.68592 -81.93463 4406 ft 264 kts 212°
2026-05-08 21:49 24.67579 -81.94179 4235 ft 258 kts 212°
2026-05-08 21:49 24.66115 -81.95216 4194 ft 243 kts 212°
2026-05-08 21:50 24.64261 -81.96455 4107 ft 224 kts 202°
2026-05-08 21:50 24.63296 -81.96789 4055 ft 216 kts 190°
2026-05-08 21:50 24.61818 -81.96876 3833 ft 211 kts 178°
2026-05-08 21:50 24.60359 -81.96851 3630 ft 208 kts 178°
2026-05-08 21:51 24.58925 -81.96830 3423 ft 205 kts 177°
2026-05-08 21:51 24.57505 -81.96806 3214 ft 203 kts 176°
2026-05-08 21:51 24.56214 -81.96349 3044 ft 193 kts 142°
2026-05-08 21:51 24.55490 -81.95181 2828 ft 184 kts 104°
2026-05-08 21:52 24.55424 -81.93809 2653 ft 178 kts 89°
2026-05-08 21:52 24.55440 -81.92466 2476 ft 173 kts 89°
2026-05-08 21:52 24.55452 -81.91166 2297 ft 166 kts 88°
2026-05-08 21:52 24.55464 -81.89947 2147 ft 153 kts 89°
2026-05-08 21:53 24.55476 -81.88813 2001 ft 143 kts 89°
2026-05-08 21:53 24.55487 -81.87774 1863 ft 132 kts 88°
2026-05-08 21:53 24.55498 -81.86778 1738 ft 129 kts 88°
2026-05-08 21:53 24.55509 -81.85804 1607 ft 127 kts 89°
2026-05-08 21:54 24.55521 -81.84823 1477 ft 128 kts 88°
2026-05-08 21:54 24.55532 -81.83851 1310 ft 127 kts 88°
2026-05-08 21:54 24.55542 -81.82879 1144 ft 127 kts 87°
2026-05-08 21:54 24.55551 -81.81909 972 ft 127 kts 89°
2026-05-08 21:55 24.55560 -81.80946 809 ft 126 kts 90°
2026-05-08 21:55 24.55569 -81.79965 640 ft 128 kts 89°
2026-05-08 21:55 24.55585 -81.78986 439 ft 126 kts 89°
2026-05-08 21:56 24.55608 -81.77045 90 ft 127 kts 91°
2026-05-08 21:56 24.55612 -81.76144 11 ft 101 kts 90°
2026-05-08 21:56 24.55616 -81.75641 14 ft 40 kts 90°
2026-05-08 21:56 24.55617 -81.75416 14 ft 25 kts 89°
2026-05-08 21:57 24.55619 -81.75253 13 ft 11 kts 100°
2026-05-08 21:57 24.55555 -81.75241 13 ft 10 kts 187°
2026-05-08 21:57 24.55532 -81.75304 13 ft 10 kts 270°
2026-05-08 21:57 24.55532 -81.75384 13 ft 11 kts 269°
2026-05-08 21:58 24.55523 -81.75450 14 ft 7 kts 221°
2026-05-08 21:58 24.55489 -81.75425 12 ft 7 kts 115°
2026-05-08 21:58 24.55453 -81.75418 12 ft 5 kts 181°
2026-05-08 21:58 24.55438 -81.75418 12 ft 0 kts 181°